Location: Nitra
(0.0000°N, 18.0833°E)
Time: 20:17:45
(UTC+02:00)

A-11 Canister half - Pass Details

Date: 04 April 2023
Orbit: 1526 x 1682 km, 47.3° (Epoch: 08 June)

Event Time Altitude Azimuth Distance (km) Brightness Sun altitude
Rises 10:40:01 0° 213° (SSW) 4,826 11.4 56.9°
Reaches altitude 10° 10:43:09 10° 210° (SSW) 3,859 11.0 57.6°
Maximum altitude 10:52:58 67° 129° (SE) 1,778 10.9 60.1°
Drops below altitude 10° 11:02:58 10° 49° (NE) 3,933 11.7 62.5°
Sets 11:06:10 0° 46° (NE) 4,923 12.0 63.3°
